Home > Weather > Naha > Past weeks

Flag for Japan Weather for the Past 2 Weeks in Naha, Okinawa, Japan

Now
81 °F

Partly sunny.


Feels Like: 83 °F
Forecast: 74 / 81 °F
Wind: 16 mph from Southeast

Location: Naha Airport

Current Time: May 5, 2016 at 2:48:03 PM

Latest Report: May 5, 2016 at 2:00 PM


Visibility: N/A

Pressure: 29.98 "Hg

Humidity: 62%

Dew Point: 66 °F

Location of NahaLocation

Historic Weather in Naha — Graph

°F

Naha Temperature Yesterday

Maximum temperature yesterday: 79 °F (at 12:30 PM)
Minimum temperature yesterday: 68 °F (at 3:00 AM)
Average temperature yesterday: 73 °F

High & Low Weather Summary for the Past Weeks

 TemperatureHumidityPressure
High82 °F (Apr 23, 12:48 PM)94% (Apr 21, 10:00 PM)30.07 "Hg (Apr 21, 10:00 PM)
Low66 °F (Apr 30, 4:00 AM)39% (May 4, 12:30 PM)29.71 "Hg (Apr 27, 1:30 PM)
Average75 °F78%29.90 "Hg
* Reported Apr 20 1:00 PM — May 5 1:30 PM, Naha, Weather by CustomWeather, © 2016

Note: Actual official high and low records may vary slightly from our data, if they occured in-between our weather recording intervals... More about our weather records

Advertising

Naha Weather History for the Previous 24 Hours

Scroll right to see more
 ConditionsComfort  
Time TempWeatherWind HumidityBarometerVisibility
1:30 PM
Thu, May 5
81 °FPartly sunny.17 mph62%29.98 "HgN/A
1:00 PM81 °FPartly sunny.16 mph66%29.98 "HgN/A
12:30 PM79 °FPartly sunny.16 mph65%29.98 "HgN/A
12:00 PM81 °FPartly sunny.15 mph66%30.01 "HgN/A
11:30 AM79 °FPartly sunny.15 mph65%30.01 "HgN/A
11:00 AM79 °FPartly sunny.16 mph65%30.01 "HgN/A
10:30 AM79 °FPartly sunny.13 mph65%30.01 "HgN/A
10:00 AM77 °FPartly sunny.10 mph69%30.01 "HgN/A
9:30 AM77 °FSunny.14 mph69%30.01 "Hg10 mi
9:00 AM77 °FSunny.14 mph69%30.01 "Hg10 mi
8:30 AM77 °FPartly sunny.10 mph69%30.01 "HgN/A
8:00 AM75 °FPartly sunny.13 mph74%30.01 "HgN/A
7:30 AM75 °FPartly sunny.10 mph74%30.01 "HgN/A
7:00 AM73 °FSunny.8 mph74%30.01 "Hg10 mi
6:30 AM73 °FSunny.8 mph74%29.98 "Hg10 mi
6:00 AM73 °FSunny.9 mph74%29.98 "Hg10 mi
5:30 AM73 °FClear.9 mph74%29.98 "Hg10 mi
5:00 AM73 °FClear.9 mph74%29.98 "Hg10 mi
4:30 AM72 °FClear.9 mph73%29.98 "Hg10 mi
4:00 AM72 °FClear.8 mph73%29.98 "Hg10 mi
3:30 AM72 °FClear.7 mph73%29.98 "Hg10 mi
3:00 AM72 °FClear.8 mph73%29.98 "Hg10 mi
2:30 AM72 °FClear.8 mph73%29.98 "Hg10 mi
2:00 AM72 °FClear.9 mph73%29.98 "Hg10 mi
1:30 AM72 °FClear.8 mph73%30.01 "Hg10 mi
1:00 AM72 °FClear.9 mph69%30.01 "Hg10 mi
12:30 AM72 °FClear.8 mph69%30.01 "Hg10 mi
12:00 AM72 °FClear.9 mph69%30.04 "Hg10 mi
11:30 PM
Wed, May 4
72 °FClear.9 mph73%30.04 "Hg10 mi
11:00 PM72 °FPassing clouds.9 mph73%30.04 "HgN/A
10:30 PM72 °FClear.10 mph73%30.04 "Hg10 mi
10:00 PM73 °FClear.9 mph69%30.04 "Hg10 mi
9:30 PM73 °FClear.10 mph69%30.04 "Hg10 mi
9:00 PM72 °FPassing clouds.8 mph69%30.01 "HgN/A
8:30 PM73 °FPassing clouds.7 mph65%30.01 "HgN/A
8:00 PM73 °FPassing clouds.7 mph65%30.01 "HgN/A
7:30 PM73 °FPassing clouds.7 mph65%30.01 "HgN/A
7:00 PM73 °FPartly sunny.7 mph61%30.01 "HgN/A
6:30 PM73 °FPartly sunny.8 mph61%29.98 "HgN/A
6:00 PM75 °FPartly sunny.8 mph50%29.98 "HgN/A
5:30 PM77 °FPartly sunny.9 mph47%29.98 "HgN/A
5:00 PM77 °FPartly sunny.8 mph44%29.95 "HgN/A
4:30 PM77 °FPartly sunny.9 mph47%29.95 "HgN/A
4:00 PM79 °FPassing clouds.9 mph48%29.98 "HgN/A
3:30 PM77 °FPassing clouds.8 mph47%29.95 "HgN/A
3:00 PM77 °FPassing clouds.9 mph51%29.95 "HgN/A
2:30 PM79 °FPassing clouds.9 mph48%29.98 "HgN/A
2:00 PM79 °FPassing clouds.9 mph51%29.98 "HgN/A
Weather by CustomWeather, © 2016

See weather overviewHow to use our weather pages